Content
SEND FEEDBACK

Daily
Averages
Monthly
Summary
United States of America

KREMLIN, OKLAHOMA


Home > North America > United States > Oklahoma
Elevation: 1254 feet     Latitude: 36 25N     Longitude: 097 52W

WEATHER
 
SELECT A DAY
Number of Records: 172,118;   Date Range: 1/3/95 - 7/27/14
 
SHARE

PRINT THIS DATA

[ ← Previous Day ]
WEATHER ALMANAC - FEBRUARY 13, 2013
[ Next Day → ]
[ °C ]   °F
Weather ElementAverageHighLow
Temperature30.6 °F50 °F (3:55 pm)21.2 °F (5:57 am)
Dewpoint28.9 °F39.2 °F (12:55 pm)21.2 °F (5:57 am)
Humidity95 %100 % (12:01 am)46 % (4:55 pm)
Barometer30.04 in30.15 in (9:58 am)29.97 in (5:55 pm)
Wind Speed7.2 mph12.7 mph (3:55 pm)
Weather ElementAverage
Visibility4.7 mi
Wind DirectionWSW (252.8 °)

Weather ElementTotal
Precipitation---
Heating Degree Days29.4 (Base 65)
Averaged from 47 records on February 13, 2013
WEATHER CONDITIONS BREAKOUT
WIND DIRECTION BREAKOUT
WEATHER BY HOUR - FEBRUARY 13, 2013
[ °C ]   °F
Local TimeTemperatureDewpointHumidityBarometerVisibilityWind DirectionWind SpeedGust SpeedPrecipitationEventsConditions
12:01 AM30.2 °F30.2 °F100 %30.06 in2.0 miWest (270°)6.9 mphScattered Clouds
12:02 AM30.2 °F30.2 °F100 %30.06 in2.5 miWest (270°)6.9 mphScattered Clouds
12:03 AM30.2 °F30.2 °F100 %30.06 in3.0 miWest (270°)6.9 mphScattered Clouds
12:20 AM28.4 °F28.4 °F100 %30.06 in2.5 miWest (270°)6.9 mphClear
12:21 AM28.4 °F28.4 °F100 %30.06 in2.0 miWest (270°)6.9 mphClear
12:22 AM28.4 °F28.4 °F100 %30.07 in1.8 miWest (270°)6.9 mphClear
12:23 AM28.4 °F28.4 °F100 %30.07 in1.5 miWest (270°)5.8 mphClear
12:24 AM28.4 °F28.4 °F100 %30.07 in1.2 miWest (270°)5.8 mphClear
12:25 AM28.4 °F28.4 °F100 %30.07 in1.0 miWest (270°)5.8 mphClear
12:26 AM28.4 °F28.4 °F100 %30.07 in0.8 miWest (270°)5.8 mphClear
12:28 AM28.4 °F28.4 °F100 %30.07 in0.5 miWest (270°)5.8 mphFogLight Freezing Fog
12:30 AM28.4 °F28.4 °F100 %30.07 in0.5 miWest (270°)5.8 mphFogLight Freezing Fog
12:31 AM28.4 °F28.4 °F100 %30.07 in0.5 miWest (270°)5.8 mphFogLight Freezing Fog
12:33 AM28.4 °F28.4 °F100 %30.07 in0.2 miWest (270°)5.8 mphFogLight Freezing Fog
12:55 AM28.4 °F28.4 °F100 %30.07 in0.2 miWest (270°)5.8 mphFogLight Freezing Fog
1:02 AM28.4 °F28.4 °F100 %30.06 in0.2 miWest (270°)5.8 mphFogLight Freezing Drizzle
1:52 AM28.4 °F28.4 °F100 %30.03 in0.2 miWest (280°)9.2 mphFogFog
1:55 AM28.4 °F28.4 °F100 %30.08 in0.2 miWest (280°)8.1 mphFogFog
2:55 AM28.0 °F28.0 °F100 %30.06 inWSW (240°)4.6 mphMostly Cloudy
3:21 AM26.6 °F26.6 °F100 %30.06 inWSW (250°)4.6 mphScattered Clouds
3:27 AM26.6 °F26.6 °F100 %30.01 in0.1 miWSW (240°)5.8 mphFogLight Freezing Fog
3:44 AM26.6 °F26.6 °F100 %30.01 in2.0 miWSW (240°)8.1 mphClear
3:56 AM24.8 °F24.8 °F100 %30.04 in8.0 miSW (230°)8.1 mphClear
4:10 AM24.8 °F24.8 °F100 %29.99 in0.2 miSW (220°)9.2 mphFogLight Freezing Fog
4:46 AM24.8 °F24.8 °F100 %29.99 in0.5 miWSW (240°)5.8 mphFogLight Freezing Fog
4:55 AM24.8 °F24.8 °F100 %30.02 in0.2 miWSW (240°)5.8 mphFogLight Freezing Fog
5:32 AM23.0 °F23.0 °F100 %30.00 in0.6 miWSW (250°)6.9 mphClear
5:44 AM23.0 °F23.0 °F100 %30.00 in1.0 miWSW (250°)4.6 mphClear
5:57 AM21.2 °F21.2 °F100 %30.04 in4.0 miSW (230°)4.6 mphClear
6:55 AM23.0 °F23.0 °F100 %30.05 in6.0 miWSW (240°)6.9 mphClear
7:56 AM23.0 °F23.0 °F100 %30.06 in10.0 miWSW (250°)5.8 mphClear
8:55 AM26.6 °F26.6 °F100 %30.07 in10.0 miWest (270°)6.9 mphClear
9:58 AM30.2 °F28.4 °F93 %30.15 in10.0 miWest (270°)6.9 mphClear
10:55 AM32.0 °F32.0 °F100 %30.07 in10.0 miWest (280°)10.4 mphClear
11:55 AM35.6 °F35.6 °F100 %30.05 in10.0 miWSW (240°)6.9 mphClear
12:55 PM41.0 °F39.2 °F93 %30.04 in10.0 miWSW (250°)6.9 mphClear
1:55 PM46.4 °F37.4 °F71 %30.00 in10.0 miWSW (250°)10.4 mphClear
2:55 PM48.2 °F32.0 °F54 %29.99 in10.0 miWSW (250°)10.4 mphClear
3:55 PM50.0 °F32.0 °F50 %29.99 in10.0 miWSW (240°)12.7 mphClear
4:55 PM48.2 °F28.4 °F46 %29.98 in10.0 miWSW (240°)11.5 mphPartly Cloudy
5:55 PM42.8 °F33.8 °F70 %29.97 in10.0 miSW (220°)8.1 mphPartly Cloudy
6:55 PM35.4 °F33.8 °F94 %29.98 in10.0 miSSW (210°)9.2 mphClear
7:55 PM34.2 °F34.0 °F99 %29.99 in10.0 miSW (220°)8.1 mphClear
8:55 PM33.1 °F32.9 °F99 %30.00 in10.0 miSW (230°)9.2 mphClear
9:55 PM32.9 °F32.5 °F99 %29.99 in10.0 miSW (220°)10.4 mphClear
10:55 PM31.8 °F31.6 °F99 %30.00 in10.0 miWSW (250°)8.1 mphClear
11:55 PM31.6 °F31.5 °F99 %29.99 in10.0 miWSW (240°)6.9 mphClear
Hourly data recorded from KEND, located miles away from Kremlin, Oklahoma







STORIES FROM OUR PARTNERS